time_stamp(utc),avg(mph),gust(mph),direction(deg),12m_air_temp(f),sonic_u(cm/s),sonic_v(cm/s),sonic_w(cm/s),pressure,2m_air_temp(f),pyranometer(W/m^2)
"2019-06-20 00:00:21+00",10.1,14.1,,70.1,1385,-2965,1286,1006.54,70.1,0
"2019-06-20 00:05:21+00",11.5,13.5,,70.3,15902,0,116,1006.47,70.3,-0.1
"2019-06-20 00:10:21+00",10.7,14.7,,70.3,1175,-2616,1108,1006.41,70.2,0
"2019-06-20 00:15:21+00",11.0,14.0,,70.3,735,-1860,636,1006.42,70.3,0
"2019-06-20 00:20:21+00",10.8,13.8,,70.4,1124,-2447,1046,1006.5,70.3,0
"2019-06-20 01:15:21+00",7.0,11.0,,70.1,965,-2038,863,1006.94,70.1,0
"2019-06-20 01:20:21+00",7.9,8.9,,70.1,1108,-2190,989,1006.97,70.2,0
"2019-06-20 01:25:21+00",5.6,7.6,,70.2,1018,-1984,958,1007.14,70.2,0
"2019-06-20 01:30:21+00",6.3,8.3,,70.1,1117,-2377,1168,1007.23,70.2,0
"2019-06-20 01:35:21+00",4.9,6.9,,70.2,236,-673,248,1007.4,70.3,0
"2019-06-20 01:40:21+00",5.0,7.0,,70.2,-27,-189,-42,1007.4,70.3,0
"2019-06-20 01:45:21+00",6.4,7.4,,70.2,27,-231,-63,1007.32,70.3,0
"2019-06-20 01:50:21+00",5.4,7.4,,69.9,9,-193,-43,1007.22,70,0
"2019-06-20 01:55:21+00",6.9,7.9,,69.8,24,-248,-70,1007.2,69.9,0
"2019-06-20 02:00:21+00",6.3,7.3,,69.7,3,-233,-62,1007.18,69.8,0
"2019-06-20 02:05:21+00",6.9,9.9,,69.7,1901,-3515,1770,1007.15,69.8,0
"2019-06-20 02:10:21+00",5.7,7.7,,69.7,122,-516,136,1007.04,69.7,0
"2019-06-20 02:15:21+00",7.0,9.0,,70,-52,-346,22,1007.01,69.9,0
"2019-06-20 02:20:21+00",10.9,12.9,,70.2,610,-1625,690,1006.87,70.2,0
"2019-06-20 02:25:21+00",10.7,13.7,,70.3,879,-2366,972,1006.76,70.2,0
"2019-06-20 02:30:21+00",8.1,11.1,,70.3,958,-2177,1022,1006.62,70.3,0
"2019-06-20 02:35:21+00",6.8,8.8,,70.4,-32,-299,-10,1006.63,70.3,0
"2019-06-20 02:40:21+00",4.5,6.5,,70.4,-53,-164,-20,1006.73,70.4,0
"2019-06-20 02:45:21+00",5.7,7.7,,70.5,-75,-209,-42,1006.8,70.4,0
"2019-06-20 02:50:21+00",2.9,3.9,,70.6,-46,-106,-13,1006.88,70.4,0
"2019-06-20 02:55:21+00",3.7,4.7,,70.6,-17,-136,-29,1006.9,70.5,0
"2019-06-20 03:00:21+00",3.2,4.2,,70.2,115,88,-23,1006.86,70.4,0
"2019-06-20 03:15:21+00",3.9,3.9,,69.7,177,21,1,1006.53,69.6,0
"2019-06-20 03:20:21+00",3.4,4.4,,69.8,131,-1,-16,1006.41,69.7,0
"2019-06-20 03:25:21+00",4.4,5.4,,69.8,153,-41,-35,1006.17,69.8,0
"2019-06-20 03:30:21+00",5.9,6.9,,69.7,199,-75,-49,1006,69.8,0
"2019-06-20 03:35:21+00",7.9,8.9,,69.4,268,-155,-65,1005.86,69.5,0
"2019-06-20 03:40:21+00",6.8,7.8,,69.5,208,-147,-67,1005.78,69.3,0
"2019-06-20 03:45:21+00",7.7,8.7,,69.6,160,-226,-69,1005.63,69.5,0
"2019-06-20 03:50:21+00",6.5,7.5,,69.6,123,-189,-53,1005.6,69.6,0
"2019-06-20 03:55:21+00",5.6,6.6,,69.7,154,-132,-48,1005.66,69.7,0
"2019-06-20 04:00:21+00",4.8,5.8,,69.7,97,-137,-46,1005.84,69.7,0
"2019-06-20 04:05:21+00",5.8,6.8,,69.6,147,-145,-52,1005.99,69.7,0
"2019-06-20 04:10:21+00",5.2,6.2,,69.6,137,-120,-47,1005.96,69.6,0
"2019-06-20 04:15:21+00",4.8,4.8,,69.5,141,-94,-45,1006.01,69.6,0
"2019-06-20 04:20:21+00",5.1,6.1,,69.6,136,-125,-47,1005.96,69.5,0
"2019-06-20 04:25:21+00",5.2,5.2,,69.6,142,-124,-45,1005.84,69.6,0
"2019-06-20 04:30:21+00",5.7,6.7,,69.7,135,-154,-59,1005.79,69.6,0
"2019-06-20 04:35:21+00",5.7,5.7,,69.6,122,-157,-51,1005.67,69.6,0
"2019-06-20 04:40:21+00",6.3,7.3,,69.7,173,-201,-26,1005.55,69.7,0
"2019-06-20 04:45:21+00",5.8,6.8,,69.7,115,-207,-23,1005.58,69.7,0
"2019-06-20 04:50:21+00",6.3,7.3,,69.7,167,-212,-29,1005.37,69.6,0
"2019-06-20 04:55:21+00",5.9,6.9,,69.6,172,-185,-39,1005.3,69.6,0
"2019-06-20 05:00:21+00",5.0,6.0,,69.5,116,-182,-21,1005.31,69.5,0
"2019-06-20 05:05:21+00",3.8,3.8,,69.4,85,-146,-27,1005.23,69.4,0
"2019-06-20 05:10:21+00",3.9,4.9,,69.5,69,-155,-24,1005.24,69.4,0
"2019-06-20 05:15:21+00",3.1,3.1,,69.5,59,-135,-22,1005.22,69.4,0
"2019-06-20 05:20:21+00",0.8,2.8,,69.7,23,-128,-20,1005.13,69.4,0
"2019-06-20 05:25:21+00",4.4,6.4,,70.2,10,-212,-27,1005.09,70,0
"2019-06-20 05:30:21+00",3.2,5.2,,70.2,8,-179,-32,1004.96,70,0
"2019-06-20 05:35:21+00",4.7,6.7,,70.4,-12,-213,-43,1004.84,70.1,0
"2019-06-20 05:40:21+00",4.5,6.5,,70.4,-27,-197,-31,1004.84,70.2,0
"2019-06-20 05:45:21+00",5.7,6.7,,70.4,21,-235,-39,1004.69,70.2,0
"2019-06-20 05:50:21+00",6.6,7.6,,70.4,19,-267,-57,1004.61,70.2,0
"2019-06-20 05:55:21+00",6.1,8.1,,70.4,-33,-240,-41,1004.67,70.2,0
"2019-06-20 06:00:21+00",3.7,5.7,,70.4,-26,-170,-8,1004.67,70.2,0
"2019-06-20 06:05:21+00",4.3,5.3,,70.4,-98,-177,-14,1004.66,70.2,0
"2019-06-20 06:10:21+00",4.2,5.2,,70.4,-41,-183,-20,1004.59,70.2,0
"2019-06-20 06:15:21+00",3.8,3.8,,70.5,-48,-143,-36,1004.57,70.3,0
"2019-06-20 06:20:21+00",4.2,5.2,,70.6,-35,-168,-24,1004.57,70.4,0
"2019-06-20 06:25:21+00",3.6,5.6,,70.6,-62,-148,-14,1004.63,70.4,0
"2019-06-20 06:30:21+00",5.6,6.6,,70.7,-102,-207,-39,1004.61,70.4,0
"2019-06-20 06:35:21+00",5.7,6.7,,70.8,-141,-201,-28,1004.62,70.4,0
"2019-06-20 06:40:21+00",5.9,7.9,,70.9,-217,-213,-41,1004.63,70.5,0
"2019-06-20 06:45:21+00",7.2,8.2,,70.9,-176,-248,-38,1004.49,70.5,0
"2019-06-20 06:50:21+00",7.4,8.4,,70.9,-193,-247,-43,1004.63,70.4,0
"2019-06-20 06:55:21+00",7.1,8.1,,70.9,-159,-246,-42,1004.42,70.4,0
"2019-06-20 07:00:21+00",6.9,7.9,,70.9,-121,-260,-42,1004.3,70.5,0
"2019-06-20 07:05:21+00",9.9,11.9,,71.1,-262,-337,-64,1004.3,70.6,0
"2019-06-20 07:10:21+00",8.5,10.5,,71.2,-290,-294,-60,1004.4,70.9,0
"2019-06-20 07:15:21+00",6.2,7.2,,71.3,-263,-217,-45,1004.36,71,0
"2019-06-20 07:20:21+00",7.3,9.3,,71.5,-336,-243,-60,1004.37,71.1,0
"2019-06-20 07:25:21+00",7.4,8.4,,71.6,-357,-221,-69,1004.4,71.3,0
"2019-06-20 07:30:21+00",7.9,8.9,,71.7,-347,-253,-64,1004.32,71.4,0
"2019-06-20 07:35:21+00",8.4,9.4,,71.6,-384,-292,-73,1004.31,71.5,0
"2019-06-20 07:40:21+00",9.0,10.0,,71.7,-371,-323,-53,1004.2,71.5,0
"2019-06-20 07:45:21+00",7.8,9.8,,71.6,-265,-276,-53,1004.1,71.5,0
"2019-06-20 07:50:21+00",8.9,9.9,,71.6,-207,-314,-50,1004.02,71.5,0
"2019-06-20 07:55:21+00",9.9,11.9,,71.6,-245,-354,-53,1003.98,71.5,0
"2019-06-20 08:00:21+00",8.1,10.1,,71.6,-130,-314,-49,1003.94,71.5,0
"2019-06-20 08:05:21+00",6.4,8.4,,71.6,-108,-247,-36,1003.95,71.5,0
"2019-06-20 08:10:21+00",6.3,8.3,,71.5,-99,-232,-42,1003.9,71.3,0
"2019-06-20 08:15:21+00",6.3,7.3,,71.4,-88,-231,-47,1003.72,71.3,0
"2019-06-20 08:20:21+00",7.5,8.5,,71.6,-185,-261,-44,1003.72,71.3,0
"2019-06-20 08:25:21+00",5.6,7.6,,71.6,-198,-206,-33,1003.68,71.4,0
"2019-06-20 08:30:21+00",6.0,8.0,,71.5,-237,-197,-30,1003.62,71.4,0
"2019-06-20 08:35:21+00",7.2,8.2,,71.5,-265,-254,-50,1003.54,71.3,0
"2019-06-20 08:40:21+00",4.7,5.7,,71.3,-74,-174,-29,1003.49,71.2,0
"2019-06-20 08:45:21+00",5.9,7.9,,71.1,-54,-222,-40,1003.49,71,0
"2019-06-20 08:50:21+00",6.9,8.9,,70.9,-96,-254,-55,1003.46,70.8,0
"2019-06-20 08:55:21+00",6.4,7.4,,70.8,-85,-235,-51,1003.43,70.7,0
"2019-06-20 09:00:21+00",5.0,8.0,,70.8,-75,-191,-35,1003.57,70.7,0
"2019-06-20 09:05:21+00",5.9,7.9,,70.6,-85,-209,-40,1003.71,70.5,0
"2019-06-20 09:10:21+00",6.1,8.1,,70.4,-85,-245,-9,1003.71,70.3,0
"2019-06-20 09:15:21+00",6.2,8.2,,70.3,-132,-238,12,1003.71,70.2,0
"2019-06-20 09:20:21+00",6.0,7.0,,70.2,-60,-252,-6,1003.68,70.1,0
"2019-06-20 09:25:21+00",8.2,10.2,,70.2,-151,-321,-7,1003.78,70.1,0
"2019-06-20 09:30:21+00",7.0,9.0,,70.2,-102,-275,9,1003.81,70,0
"2019-06-20 09:35:21+00",8.3,11.3,,70.2,-125,-343,-11,1003.83,70,0
"2019-06-20 09:40:21+00",8.4,10.4,,70.3,-111,-344,-1,1003.8,70.2,0
"2019-06-20 09:45:21+00",4.8,6.8,,70.4,-40,-191,21,1003.72,70.3,0
"2019-06-20 09:50:21+00",6.7,8.7,,70.3,-52,-276,-15,1003.66,70.3,0
"2019-06-20 09:55:21+00",6.7,8.7,,70.3,-83,-269,-8,1003.74,70.2,0
"2019-06-20 10:00:21+00",7.0,9.0,,70.2,-89,-276,-9,1003.69,70.2,0
"2019-06-20 10:05:21+00",7.5,9.5,,70.2,-162,-285,3,1003.61,70.2,0
"2019-06-20 10:10:21+00",7.4,8.4,,70.2,-161,-268,-7,1003.65,70.2,0
"2019-06-20 10:15:21+00",7.8,9.8,,70.3,-183,-290,-3,1003.73,70.3,0
"2019-06-20 10:20:21+00",7.1,8.1,,70.4,-208,-228,6,1003.85,70.4,0
"2019-06-20 10:25:21+00",5.6,6.6,,70.6,-136,-204,11,1003.71,70.6,0
"2019-06-20 10:30:21+00",6.5,8.5,,70.7,-122,-241,6,1003.6,70.7,0
"2019-06-20 10:35:21+00",7.3,8.3,,70.7,-105,-288,-17,1003.55,70.7,0
"2019-06-20 10:40:21+00",7.1,8.1,,70.8,-414,149,-219,1003.69,70.8,1.5
"2019-06-20 10:45:21+00",5.8,7.8,,71.1,-138,-210,20,1003.72,71,0.8
"2019-06-20 10:50:21+00",6.8,8.8,,71.2,-113,-268,13,1003.69,71.2,2.3
"2019-06-20 10:55:21+00",5.7,6.7,,71.3,-120,-221,-5,1003.87,71.3,17.2
"2019-06-20 11:00:21+00",6.4,8.4,,71.4,-98,-251,-5,1003.69,71.4,27.3
"2019-06-20 11:05:21+00",7.6,8.6,,71.4,-119,-319,-1,1003.83,71.5,3
"2019-06-20 11:10:21+00",5.2,6.2,,71.5,-72,-207,-3,1003.59,71.6,1.2
"2019-06-20 11:15:21+00",6.4,7.4,,71.7,-81,-260,-3,1003.41,71.7,4.8
"2019-06-20 11:20:21+00",6.4,8.4,,71.7,-104,-255,-1,1003.37,71.8,39.4
"2019-06-20 11:25:21+00",6.6,8.6,,71.7,-121,-260,7,1003.35,71.8,63.7
"2019-06-20 11:30:21+00",5.8,7.8,,71.9,-134,-221,14,1003.37,72,62.6
"2019-06-20 11:35:21+00",7.7,9.7,,72.1,-142,-296,-4,1003.3,72.2,77.5
"2019-06-20 11:40:21+00",7.3,10.3,,72.3,-86,-303,1,1002.95,72.3,79.4
"2019-06-20 11:45:21+00",8.5,11.5,,72.4,-109,-347,5,1003.02,72.3,40.4
"2019-06-20 11:50:21+00",8.0,12.0,,72.4,-87,-318,-1,1003.02,72.3,48
"2019-06-20 11:55:21+00",10.3,12.3,,72.4,-171,-409,-1,1002.97,72.3,79.9
"2019-06-20 12:00:21+00",8.7,10.7,,72.4,-127,-350,-13,1002.98,72.2,96.9
"2019-06-20 12:05:21+00",10.7,12.7,,72.4,-158,-431,-11,1002.89,72.2,93
"2019-06-20 12:10:21+00",10.2,11.2,,72.6,-230,-396,15,1002.88,72.4,109.7
"2019-06-20 12:15:21+00",10.5,13.5,,72.8,-191,-415,-8,1002.83,72.6,143.4
"2019-06-20 12:20:21+00",9.4,10.4,,73,-171,-374,-1,1002.83,72.9,131.9
"2019-06-20 12:25:21+00",8.9,10.9,,73.1,-203,-335,12,1002.8,73.1,159.4
"2019-06-20 12:30:21+00",10.1,12.1,,73.4,-169,-398,-5,1002.66,73.4,147.3
"2019-06-20 12:35:21+00",9.8,11.8,,73.6,-201,-377,-3,1002.77,73.8,168.6
"2019-06-20 12:40:21+00",11.6,12.6,,73.8,-238,-435,-22,1002.9,74.2,185.4
"2019-06-20 12:45:21+00",9.9,11.9,,73.9,-230,-379,11,1002.82,74.5,164.8
"2019-06-20 12:50:21+00",9.0,12.0,,74,-263,-315,15,1002.99,74.8,143.2
"2019-06-20 12:55:21+00",10.5,11.5,,73.9,-243,-396,-4,1003.04,74.9,201.1
"2019-06-20 13:00:21+00",9.4,10.4,,74.2,-233,-341,11,1002.99,75.2,214.4
"2019-06-20 13:05:21+00",12.0,13.0,,74.4,-358,-392,-11,1003.07,75.7,261.4
"2019-06-20 13:10:21+00",14.1,15.1,,74.5,-432,-478,-3,1002.99,76,212.5
"2019-06-20 13:15:21+00",13.1,17.1,,74.5,-418,-404,24,1002.97,76.1,166.1
"2019-06-20 13:20:21+00",12.9,15.9,,74.6,-424,-394,30,1002.99,76.2,227.5
"2019-06-20 13:25:21+00",13.5,15.5,,74.6,-382,-473,-15,1003.04,76.2,212.4
"2019-06-20 13:30:21+00",12.9,14.9,,74.7,-381,-422,16,1003.11,76.6,288.3
"2019-06-20 13:35:21+00",12.8,14.8,,75.1,-384,-434,24,1003.15,77,281.2
"2019-06-20 13:40:21+00",13.3,16.3,,75.2,-420,-414,7,1003.18,77.3,307.6
"2019-06-20 13:45:21+00",11.6,13.6,,75.4,-321,-435,53,1003.14,77.6,279.4
"2019-06-20 13:50:21+00",13.3,16.3,,75.5,-375,-482,-2,1003.14,77.3,201.3
"2019-06-20 13:55:21+00",12.3,14.3,,75.7,-337,-443,14,1003.01,77.4,330.5
"2019-06-20 14:00:21+00",12.5,13.5,,76,-398,-381,-9,1002.85,77.8,314.4
"2019-06-20 14:05:21+00",12.1,14.1,,76.2,-287,-462,11,1002.81,78.2,374.2
"2019-06-20 14:10:21+00",11.0,13.0,,76.6,-283,-403,12,1002.83,78.5,356.3
"2019-06-20 14:15:21+00",8.3,10.3,,76.7,-115,-330,16,1002.77,78.4,335.7
"2019-06-20 14:20:21+00",11.1,13.1,,76.3,-148,-447,-15,1002.71,78,265.9
"2019-06-20 14:25:21+00",9.5,12.5,,76.2,-81,-391,4,1002.67,77.8,354.3
"2019-06-20 14:30:21+00",11.5,14.5,,76.3,-110,-469,-7,1002.59,77.9,432.5
"2019-06-20 14:35:21+00",8.5,11.5,,76.4,-96,-347,39,1002.56,78.1,326.8
"2019-06-20 14:40:21+00",11.2,15.2,,75.9,-149,-462,15,1002.64,77.6,225.3
"2019-06-20 14:45:21+00",10.5,13.5,,75.7,-148,-420,2,1002.57,77.4,226.8
"2019-06-20 14:50:21+00",9.6,12.6,,75.8,-147,-389,27,1002.61,77.4,319.8
"2019-06-20 14:55:21+00",9.2,12.2,,75.7,-83,-384,-7,1002.61,77.3,319.1
"2019-06-20 15:00:21+00",10.0,13.0,,75.4,-123,-404,-14,1002.53,77.2,471.8
"2019-06-20 15:05:21+00",9.1,12.1,,76,-100,-370,-8,1002.45,77.7,451.5
"2019-06-20 15:10:21+00",8.2,10.2,,75.9,-84,-334,21,1002.33,77.4,235
"2019-06-20 15:15:21+00",9.6,12.6,,76.2,-125,-398,13,1002.38,77.7,430.9
"2019-06-20 15:20:21+00",9.4,11.4,,76.4,-107,-398,0,1002.33,77.8,338.6
"2019-06-20 15:25:21+00",7.7,11.7,,76.3,4,-326,3,1002.32,77.7,509.2
"2019-06-20 15:30:21+00",10.8,15.8,,75.8,14,-459,-10,1002.32,77.4,512.7
"2019-06-20 15:35:21+00",8.0,12.0,,75.6,-60,-334,30,1002.35,77.1,232.6
"2019-06-20 15:40:21+00",12.2,14.2,,76,-130,-506,-7,1002.43,77.5,259.4
"2019-06-20 15:45:21+00",13.2,16.2,,76.4,-182,-543,-16,1002.47,77.8,358.6
"2019-06-20 15:50:21+00",13.3,15.3,,76.7,-240,-520,-13,1002.33,78.1,279.1
"2019-06-20 15:55:21+00",10.0,12.0,,76.9,-92,-403,30,1002.3,78.2,234
"2019-06-20 16:00:21+00",9.9,12.9,,77,-172,-397,4,1002.22,78.4,349
"2019-06-20 16:05:21+00",9.6,12.6,,77.6,-130,-386,0,1001.96,79,207.7
"2019-06-20 16:10:21+00",11.7,13.7,,76.8,84,-495,-22,1001.72,78.7,518.8
"2019-06-20 16:15:21+00",9.1,12.1,,76.3,27,-367,-1,1001.67,78.3,537.8
"2019-06-20 16:20:21+00",6.6,9.6,,77.1,-35,-277,13,1001.76,78.8,547.9
"2019-06-20 16:25:21+00",10.5,13.5,,76.7,-25,-439,-7,1001.72,78.6,519.7
"2019-06-20 16:30:21+00",8.7,10.7,,76.8,-29,-370,-13,1001.62,78.4,542
"2019-06-20 16:35:21+00",7.6,11.6,,77.8,-58,-304,20,1001.43,79.2,554.7
"2019-06-20 16:40:21+00",10.1,14.1,,78.2,-122,-416,1,1001.41,79.8,557.7
"2019-06-20 16:45:21+00",9.2,13.2,,78.9,-49,-382,3,1001.32,80.5,552.9
"2019-06-20 16:50:21+00",9.5,15.5,,78.4,-67,-402,20,1001.37,80.1,557.9
"2019-06-20 16:55:21+00",13.4,17.4,,78.1,-139,-553,4,1001.47,80.1,572.7
"2019-06-20 17:00:21+00",13.3,16.3,,78.2,-115,-557,-24,1001.24,80.1,506.6
"2019-06-20 17:05:21+00",14.5,18.5,,78.3,-192,-583,-32,1001.14,80.2,555.5
"2019-06-20 17:10:21+00",11.3,17.3,,79,-173,-461,20,1001.15,80.8,517.4
"2019-06-20 17:15:21+00",12.2,16.2,,79.5,-135,-492,-10,1001.12,81.2,483.6
"2019-06-20 17:20:21+00",13.4,16.4,,79.8,-130,-557,10,1001,81.4,407.9
"2019-06-20 17:25:21+00",12.5,16.5,,78.5,14,-534,-2,1000.88,80.3,482.3
"2019-06-20 17:30:21+00",11.2,15.2,,78.4,-59,-452,5,1000.74,80,546.9
"2019-06-20 17:35:21+00",16.7,19.7,,78.5,-161,-703,-14,1000.83,80.2,552.8
"2019-06-20 17:40:21+00",13.8,16.8,,78.1,-136,-584,-17,1000.58,79.9,449.3
"2019-06-20 17:45:21+00",13.1,17.1,,78.4,-177,-544,7,1000.59,80.3,533.2
"2019-06-20 17:50:21+00",17.4,21.4,,78.8,-271,-693,-30,1000.52,80.5,533.4
"2019-06-20 17:55:21+00",16.1,18.1,,79.3,-317,-629,3,1000.4,81,523.5
"2019-06-20 18:00:21+00",14.6,17.6,,80,-301,-567,4,1000.4,81.7,494.3
"2019-06-20 18:05:21+00",18.5,20.5,,79.7,-380,-709,-17,1000.21,81.5,517.3
"2019-06-20 18:10:21+00",20.2,23.2,,79.7,-328,-802,-24,1000.03,81.4,485.7
"2019-06-20 18:15:21+00",12.6,19.6,,80.4,-236,-509,15,999.97,81.7,502.3
"2019-06-20 18:20:21+00",17.2,20.2,,79.9,-324,-676,-10,999.91,81.7,499.7
"2019-06-20 18:25:21+00",16.0,21.0,,79.7,-195,-650,-2,999.78,81.4,495.9
"2019-06-20 18:30:21+00",19.9,23.9,,79.1,-332,-788,-12,999.71,80.9,492.3
"2019-06-20 18:35:21+00",17.5,20.5,,79.1,-205,-713,-11,999.66,81,485.6
"2019-06-20 18:40:21+00",16.2,20.2,,79,-143,-661,-2,999.56,80.8,482.9
"2019-06-20 18:45:21+00",22.3,27.3,,78.7,-276,-918,-38,999.49,80.4,476.4
"2019-06-20 18:50:21+00",19.1,25.1,,78,-227,-784,2,999.61,79.7,471.5
"2019-06-20 18:55:21+00",15.4,20.4,,78.3,-200,-635,-8,999.76,79.9,467.7
"2019-06-20 19:00:21+00",15.8,22.8,,78.5,-201,-640,20,999.78,80.1,464
"2019-06-20 19:05:21+00",15.6,18.6,,78.7,-206,-631,11,999.79,80.3,400.9
"2019-06-20 19:10:21+00",19.8,22.8,,78.3,-361,-778,-9,999.69,80,460.4
"2019-06-20 19:15:21+00",18.0,23.0,,78.3,-254,-731,-8,999.61,80.1,447.5
"2019-06-20 19:20:21+00",17.5,23.5,,78.1,-126,-736,-21,999.36,79.8,454.8
"2019-06-20 19:25:21+00",17.5,22.5,,78,-134,-733,-20,999.4,79.7,444.1
"2019-06-20 19:30:21+00",14.2,18.2,,78.2,-171,-590,15,999.37,79.8,412
"2019-06-20 19:35:21+00",16.4,21.4,,77.5,-164,-679,-4,999.3,78.9,267.2
"2019-06-20 19:40:21+00",16.9,22.9,,76.9,-179,-708,-14,999.27,78,42
"2019-06-20 19:45:21+00",14.7,19.7,,76,-172,-616,11,999.18,77,39.8
"2019-06-20 19:50:21+00",15.3,18.3,,75.8,-185,-624,8,999.16,76.7,34.6
"2019-06-20 19:55:21+00",17.3,20.3,,75.8,-220,-715,-1,999.01,76.4,40.4
"2019-06-20 20:00:21+00",16.3,22.3,,75.8,-203,-669,2,998.88,76.3,45.2
"2019-06-20 20:05:21+00",16.3,21.3,,75.8,-221,-664,9,998.62,76.3,53.3
"2019-06-20 20:10:21+00",16.7,22.7,,76,-197,-698,3,998.7,76.3,65.9
"2019-06-20 20:15:21+00",15.3,18.3,,76.1,-204,-639,-12,998.49,76.5,64.8
"2019-06-20 20:20:21+00",11.9,16.9,,76.3,-159,-491,3,998.4,76.7,59
"2019-06-20 20:25:21+00",13.5,17.5,,77.1,-251,-528,2,998.32,77.4,248.2
"2019-06-20 20:30:21+00",19.2,23.2,,79,-376,-748,4,998.26,79.3,126.9
"2019-06-20 20:35:21+00",16.9,20.9,,79.6,-421,-641,20,998.48,80.3,128.8
"2019-06-20 20:40:21+00",14.5,17.5,,79.8,-501,-412,68,998.54,81.1,124.3
"2019-06-20 20:45:21+00",18.2,21.2,,79.5,-619,-514,20,998.62,81.1,82
"2019-06-20 20:50:21+00",13.7,16.7,,79.1,-261,-540,-17,998.5,80.6,106.3
"2019-06-20 20:55:21+00",14.6,16.6,,79.5,-315,-565,12,998.35,80.8,46.4
"2019-06-20 21:00:21+00",12.1,15.1,,79.9,-248,-470,6,998.31,81.1,264.5
"2019-06-20 21:05:21+00",13.1,16.1,,80.2,-299,-490,-27,998.39,81.4,118.1
"2019-06-20 21:10:21+00",13.9,15.9,,80.5,-327,-533,27,998.35,81.5,247.2
"2019-06-20 21:15:21+00",16.3,19.3,,79.8,-379,-616,-6,998.42,80.8,1
"2019-06-20 21:20:21+00",12.7,15.7,,79.2,-301,-491,8,998.34,79.8,0
"2019-06-20 21:25:21+00",12.9,15.9,,78.9,-322,-483,-6,998.32,79.2,0
"2019-06-20 21:30:21+00",13.6,16.6,,79.1,-435,-414,-2,998.54,79,0
"2019-06-20 21:35:21+00",13.6,14.6,,79,-608,16,35,998.72,79,0
"2019-06-20 21:40:21+00",30.5,41.5,,77.9,-1048,894,84,999.29,78.3,0
"2019-06-20 21:45:21+00",21.8,24.8,,73.1,-1159,1148,-293,999.49,75.3,0
"2019-06-20 21:50:21+00",8.9,10.9,,72.9,-381,94,26,999.46,74.5,0
"2019-06-20 21:55:21+00",6.3,7.3,,72.9,-266,-48,17,999.37,74.1,27.3
"2019-06-20 22:00:21+00",7.7,9.7,,73.3,-323,-126,45,999.24,74.4,98.7
"2019-06-20 22:05:21+00",8.3,9.3,,73.5,-276,-225,22,999.32,74,90.9
"2019-06-20 22:10:21+00",11.1,13.1,,73.9,-357,-322,7,999.29,73.8,46.5
"2019-06-20 22:15:21+00",9.8,10.8,,74.1,-342,-247,1,999.18,73.9,48.2
"2019-06-20 22:20:21+00",6.2,7.2,,74,-190,-196,3,998.86,73.9,66.6
"2019-06-20 22:25:21+00",7.8,9.8,,74.7,300,-1063,423,998.77,74.5,199
"2019-06-20 22:30:21+00",5.2,7.2,,75.3,-62,-208,18,998.62,74.9,146
"2019-06-20 22:35:21+00",5.0,7.0,,75.9,-68,-203,16,998.59,75.4,128.2
"2019-06-20 22:40:21+00",5.4,6.4,,76.3,-152,-190,-6,998.58,75.6,117.3
"2019-06-20 22:45:21+00",4.8,5.8,,76.7,-74,-191,3,998.63,75.9,105.9
"2019-06-20 22:50:21+00",5.4,6.4,,76.8,-117,-203,-6,998.73,76.1,42
"2019-06-20 22:55:21+00",3.8,4.8,,77,-64,-162,-5,998.76,76.3,82.9
"2019-06-20 23:00:21+00",5.3,7.3,,77.2,-161,-166,-3,998.75,76.5,70.2
"2019-06-20 23:05:21+00",5.2,6.2,,77.3,-158,-182,4,998.82,76.6,68.1
"2019-06-20 23:10:21+00",7.0,8.0,,77.8,-200,-239,1,998.7,76.9,61.4
"2019-06-20 23:15:21+00",5.4,8.4,,77.9,-51,-221,14,998.68,77.1,49.9
"2019-06-20 23:20:21+00",6.5,7.5,,76,34,-276,-7,998.79,75.9,41.8
"2019-06-20 23:25:21+00",3.3,4.3,,75.4,46,-135,-9,998.85,75.4,15
"2019-06-20 23:30:21+00",5.5,7.5,,74.9,60,-221,12,998.74,74.9,0
"2019-06-20 23:35:21+00",6.1,6.1,,74.8,34,-253,-24,998.84,74.3,0
"2019-06-20 23:40:21+00",4.5,5.5,,74.5,55,-189,-12,998.85,74.1,0
"2019-06-20 23:45:21+00",5.6,6.6,,74.2,51,-229,-17,998.9,73.8,0
"2019-06-20 23:50:21+00",5.7,6.7,,74.9,-45,-235,0,998.83,73.6,0
"2019-06-20 23:55:21+00",6.8,7.8,,75.5,-96,-266,-9,998.88,73.8,0
